Regional Weather Roundup
Issued by NWS

Home | Current Version | Previous Version | Text Only | Print | Product List | Glossary Off
Versions: 1 2 3 4 5 6 7 8 9 10 11 12 13 14 15 16 17 18 19 20 21 22 23 24 25 26 27 28 29 30 31 32 33 34 35 36 37 38 39 40 41 42 43 44 45 46 47 48 49 50

467
ASUS43 KDTX 181601
RWRMI
MICHIGAN HOURLY REGIONAL WEATHER ROUNDUP
NATIONAL WEATHER SERVICE DETROIT/PONTIAC MI
1100 AM EST THU JAN 18 2018

NOTE: "FAIR" INDICATES FEW OR NO CLOUDS BELOW 12,000 FEET WITH NO
SIGNIFICANT WEATHER AND/OR OBSTRUCTION TO VISIBILITY.

MIZ047>049-052>055-059>063-066>070-074>076-081>083-181700-
SOUTHEAST LOWER MICHIGAN

CITY           SKY/WX    TMP DP  RH WIND       PRES   REMARKS
ADRIAN         FAIR      19  10  68 SW9       30.12S WCI   8
ALMA           CLOUDY    28  23  82 SW16      30.01R WCI  15
ANN ARBOR      FAIR      20  12  71 SW12      30.09R WCI   8
BAD AXE        FAIR      24  17  76 SW9       29.99S WCI  14
CARO           FAIR      24  18  78 SW14      30.00S WCI  12
DETROIT CITY   FAIR      20  11  68 W17       30.09S WCI   5
DETROIT        FAIR      21  11  65 SW15      30.11S WCI   8
FLINT          CLOUDY    22  16  78 SW14      30.05R WCI   9
GROSSE ILE     FAIR      21  11  67 W13       30.11S WCI   8
HILLSDALE      FAIR      21  10  63 SW15G21   30.06F WCI   8
HOWELL         CLOUDY    21  17  82 W15G21    30.05R WCI   8

CITY           SKY/WX    TMP DP  RH WIND       PRES   REMARKS
JACKSON        FAIR      19  11  70 SW17      30.07S WCI   4
LAMBERTVILLE   FAIR      20  10  66 SW14G26   30.14S WCI   6
LANSING        CLOUDY    22  17  81 SW17      30.05R WCI   8
LAPEER         CLOUDY    24  18  77 W16       30.03S WCI  10
MASON          FAIR      23  13  67 SW10      30.06R WCI  12
MT. CLEMENS    PTSUNNY   21  10  62 SW12      30.04R WCI   9
PONTIAC        CLOUDY    20  15  81 W14       30.04R WCI   7
PORT HOPE        N/A     24  16  71 SW8G18    29.97R WCI  15
PORT HURON     CLOUDY    21  12  68 SW7       30.06F WCI  13
TRI CITIES     PTSUNNY   24  20  84 SW13      30.00S WCI  12
MIDLAND        PTSUNNY   29  21  73 SW9G18    29.98S WCI  20
TROY           FAIR      23  14  68 SW9       30.09S WCI  13
SAGINAW HB     CLOUDY    23  19  86 SW17      30.01S WCI   9
$$
MIZ043>046-050>051-056>058-064>065-071>073-077>080-181700-
SOUTHWEST LOWER MICHIGAN

CITY           SKY/WX    TMP DP  RH WIND       PRES   REMARKS
BATTLE CREEK   FAIR      19  12  74 SW17      30.07S WCI   4
BENTON HARBOR  FAIR      22  13  68 SW16G25   30.10F WCI   8
BIG RAPIDS     PTSUNNY   26  20  76 SW12      29.96R WCI  16
COLDWATER      FAIR      20  11  69 SW13G18   30.10S WCI   7
FREMONT        CLOUDY    28  19  68 SW17G23   30.00S WCI  16
HOLLAND        CLOUDY   N/A N/A N/A MISG      30.06S
GRAND RAPIDS   CLOUDY    26  20  77 W21       30.04R WCI  12
IONIA          CLOUDY    26  21  82 SW15G23   30.03R WCI  13
KALAMAZOO      FAIR      20  11  68 SW14G22   30.09S WCI   7
LUDINGTON      CLOUDY    29  25  83 SW12G21   29.99R WCI  19
MARSHALL       FAIR      19  10  68 SW15      30.08R WCI   5
MOUNT PLEASANT FAIR      29  20  70 SW12G20   29.97S WCI  19
MUSKEGON       CLOUDY    29  22  75 SW20G26   30.03R WCI  16
SOUTH HAVEN    CLOUDY    25  19  76 SW18G25   30.08F WCI  12
$$
MIZ016>042-181700-
NORTHERN LOWER MICHIGAN

CITY           SKY/WX    TMP DP  RH WIND       PRES   REMARKS
ALPENA         CLOUDY    24  19  81 SW8       29.92R WCI  15
BEAVER ISLAND  FAIR      32  25  76 W15       29.86R WCI  21
BELLAIRE       CLOUDY    27  24  86 S7        29.90F WCI  20
CADILLAC       CLOUDY    24  20  86 SW13G18   29.90R WCI  12
CHARLEVOIX     CLOUDY    30  25  82 SW9       29.90S WCI  22
FRANKFORT      PTSUNNY   32  26  79 SW10G17   29.92F WCI  24
GAYLORD        CLOUDY    24  22  91 SW15G24   29.85R WCI  11
GRAYLING       CLOUDY    25  19  80 SW9       29.91R WCI  15
HARBOR SPRINGS CLOUDY    29  24  81 SW9       29.87R WCI  21
HOUGHTON LAKE  FAIR      25  19  78 W9        29.92R WCI  15
MANISTEE       PTSUNNY   33  23  66 SW15      29.96R WCI  23
OSCODA         PTSUNNY   24  17  73 SW10      29.94S WCI  14
PELLSTON       CLOUDY    30  24  78 SW8       29.87R WCI  22
ROGERS CITY    CLOUDY    26  20  79 S6        29.90R WCI  19
TRAVERSE CITY  PTSUNNY   29  23  78 SW7G16    29.89F WCI  22
$$
MIZ007>008-015-181700-
EASTERN UPPER MICHIGAN

CITY           SKY/WX    TMP DP  RH WIND       PRES   REMARKS
KINROSS        FAIR      26  16  65 W8        29.85R WCI  18
MACKINAC ISLAN PTSUNNY   27  22  80 SW7       29.85S WCI  19
NEWBERRY       FAIR      22  16  78 SW5       29.83R WCI  15
MUNISING         N/A     21  16  81 S9        29.79F WCI  11
$$
MIZ004>006-011>014-085-181700-
CENTRAL UPPER MICHIGAN

CITY           SKY/WX    TMP DP  RH WIND       PRES   REMARKS
MANISTIQUE     FAIR      24  20  85 S7        29.84S WCI  16
ESCANABA       FAIR      22  16  78 SW10      29.84F WCI  11
MENOMINEE      FAIR      24  17  74 SW9       29.87F WCI  14
SAWYER-GWINN   PTSUNNY   18  14  86 SW8       29.75F WCI   7
$$
MIZ001>003-009>011-084-181700-
WESTERN UPPER MICHIGAN

CITY           SKY/WX    TMP DP  RH WIND       PRES   REMARKS
IRON MOUNTAIN  FAIR      21  15  78 SE5       29.76F WCI  15
HOUGHTON       CLOUDY    24  16  71 S7        29.67R WCI  16
COPPER HARBOR    N/A     27  21  78 VRB7G21   29.71R WCI  19
IRONWOOD       FLURRIES  29  20  69 SW13      29.73R WCI  19
$$

ABBREVIATIONS USED IN REMARKS
   TC - TEMPERATURE IN CELSIUS
  WCI - WIND CHILL INDEX
   HX - HEAT INDEX
  VSB - VISIBILITY





USA.gov is the U.S. government's official web portal to all federal, state and local government web resources and services.